Location: Newark
(40.7830°N, 8.7430°E)
Time: 10:49:50
(UTC+00:00)

ISS - Pass Details

Date: 19 September 2019
Orbit: 411 x 421 km, 51.6° (Epoch: 22 October)

Event Time Altitude Azimuth Distance (km) Brightness Sun altitude
Rises 18:28:17 0° 214° (SW) 2,329 0.3 -12.1°
Reaches altitude 10° 18:30:27 10° 206° (SSW) 1,471 -0.8 -12.5°
Maximum altitude 18:33:31 37° 137° (SE) 656 -3.2 -13.1°
Enters shadow 18:34:54 25° 88° (E) 883 -2.7 -13.4°
